Theta_e
328 326 327 331 333 332 332 331 330 327 324 324 326 329 333 331 326 327 330 331 331 332 331 330 329 328 330 331 334 335 335 336 337 338 337 336 334 325 315 315 321 331 335 335 335 333 332 331 330 325 318 317 317 316 317 319 321 322 325 323 319 318 320 324 326 327 329 329 330 330 330 330 329 328 329 329 329 329 329 329 328 328 328 328 328
329 325 327 333 335 334 334 332 330 329 326 324 323 324 329 333 329 326 329 331 331 332 331 331 328 328 330 333 336 338 338 338 338 338 336 334 328 319 317 324 330 334 335 334 335 333 331 329 329 326 319 317 318 318 318 321 323 324 323 323 323 321 320 320 321 322 324 326 329 330 330 330 329 328 328 329 328 328 328 328 327 327 327 327 326
330 325 328 334 335 335 335 333 331 330 328 325 323 321 325 333 332 327 329 330 331 332 331 331 327 327 331 335 337 338 338 338 337 334 331 327 320 317 323 329 332 334 334 334 334 332 330 329 328 325 321 319 319 320 320 321 323 324 322 322 324 325 324 322 321 319 319 319 323 327 329 328 327 327 327 327 328 327 327 326 325 325 326 325 324
331 325 328 332 332 333 334 332 331 331 330 326 324 321 321 330 333 329 329 330 331 331 331 331 326 327 331 336 338 338 337 335 333 329 323 320 318 322 327 331 333 333 333 333 333 331 328 327 326 324 322 321 322 323 322 322 323 324 323 323 323 325 325 324 323 321 319 316 316 320 326 326 323 325 325 326 327 326 326 325 324 324 325 323 321
334 328 328 330 330 331 331 332 332 331 330 327 324 321 319 327 333 330 329 330 331 331 331 330 326 327 332 336 337 337 336 332 327 322 317 319 323 328 330 331 332 333 333 333 333 331 329 326 325 324 323 323 324 324 324 322 324 327 327 325 321 323 325 324 324 322 320 317 315 315 320 322 321 323 325 326 327 325 326 325 322 322 323 322 320
337 332 329 329 329 330 331 332 332 331 330 327 323 320 320 328 332 329 329 330 331 331 331 329 326 329 335 336 337 336 332 326 321 318 319 325 329 330 331 331 332 332 332 332 332 332 330 327 325 323 322 325 325 324 324 323 326 329 329 327 322 322 324 324 324 323 321 318 316 315 319 320 320 320 319 323 324 324 324 323 322 322 323 321 322
339 335 331 330 330 330 330 331 331 331 329 325 321 319 323 330 331 329 330 331 332 332 331 329 328 333 337 337 336 333 327 321 318 318 324 330 332 332 331 331 330 330 330 331 332 331 331 329 328 324 322 326 326 325 325 325 327 327 327 328 326 324 324 324 324 323 321 318 315 315 319 322 324 321 318 321 322 322 323 323 323 321 321 320 322
339 336 333 330 329 330 330 331 331 330 327 323 321 320 326 331 329 329 330 332 333 333 333 330 331 335 336 337 334 327 322 318 317 322 329 332 333 333 331 330 328 329 329 329 329 328 328 329 331 326 323 326 327 326 327 327 328 326 325 327 326 325 325 325 324 323 321 319 316 313 315 319 324 325 323 324 324 325 325 324 322 320 320 320 321
338 336 334 331 330 330 330 331 331 329 324 321 323 324 328 330 329 329 331 333 332 332 333 332 334 335 337 337 331 324 319 316 319 326 332 333 334 333 331 329 328 328 327 328 327 323 320 321 328 327 323 327 328 327 326 326 326 325 324 325 325 325 325 325 324 324 323 321 318 314 313 314 320 325 326 326 326 326 325 323 322 320 320 320 320
337 337 334 332 331 331 332 332 331 328 323 324 328 328 328 329 329 330 331 332 331 332 331 332 335 337 337 334 327 321 317 316 324 330 333 335 334 333 332 330 329 328 327 326 324 319 313 312 318 323 324 327 327 326 325 324 324 323 324 325 325 326 325 326 326 325 324 323 319 316 314 312 315 320 325 325 325 325 324 322 321 319 319 320 318
337 337 332 330 331 332 333 332 331 327 323 328 331 331 330 329 329 329 330 331 331 332 332 333 336 336 334 329 324 319 315 319 328 332 334 335 334 334 333 332 331 329 327 325 322 316 312 310 311 319 324 326 327 326 325 323 322 323 324 325 325 326 326 326 326 326 325 322 319 316 314 313 312 316 323 324 323 324 322 320 318 318 320 321 317
338 336 331 330 331 331 332 331 331 326 324 330 331 330 330 328 329 328 328 330 331 333 333 335 335 334 330 327 323 318 316 321 330 332 334 334 334 335 334 334 333 331 329 326 322 316 312 311 312 319 324 326 327 327 326 323 322 323 324 324 325 326 326 326 326 326 324 321 319 316 314 313 311 314 319 322 323 324 322 318 318 321 322 321 318
337 335 331 330 330 332 332 331 330 325 326 332 331 329 327 328 328 326 327 331 333 335 335 335 334 332 329 325 321 318 317 323 331 333 334 334 334 335 334 334 334 333 331 325 321 315 312 311 314 321 325 326 327 327 326 323 323 323 323 324 325 326 326 326 326 325 323 322 320 316 313 312 312 312 312 319 323 324 324 320 319 322 322 322 321
337 335 331 329 330 333 331 330 330 324 327 333 331 329 327 328 326 325 330 333 335 335 335 334 333 330 327 322 321 321 322 326 331 333 333 334 334 334 334 334 334 333 330 324 320 315 312 313 319 324 326 327 327 328 327 324 324 324 324 325 325 326 326 326 326 326 324 323 321 317 314 311 313 313 309 315 322 324 323 323 320 318 318 319 322
337 335 330 330 331 333 331 331 329 322 326 332 331 329 329 329 326 328 334 335 335 335 334 333 331 328 325 321 321 323 325 328 330 332 333 334 334 334 334 333 333 331 326 322 319 315 312 316 323 326 327 328 328 328 327 326 325 324 324 325 326 326 326 327 326 326 325 323 321 318 314 312 313 315 310 310 320 324 322 322 319 316 318 319 318
336 334 331 330 332 333 333 333 329 323 326 330 329 329 331 329 329 332 335 336 336 335 334 333 329 327 325 323 322 322 325 328 329 331 333 333 333 333 334 333 332 329 323 320 319 315 313 318 326 327 328 328 328 328 327 327 325 325 325 325 326 325 327 327 327 326 325 324 322 318 315 313 313 314 310 308 313 321 321 319 318 317 319 319 315
334 333 331 331 332 333 334 332 328 325 328 330 329 330 331 331 332 334 335 335 335 335 334 331 328 328 326 325 324 323 324 327 328 331 332 332 332 332 333 332 331 325 321 320 317 315 314 321 327 327 328 328 328 328 327 327 326 325 325 325 325 325 327 327 327 327 325 325 323 320 317 313 313 313 310 308 308 314 315 313 318 319 318 317 315
334 334 332 331 331 334 334 330 328 326 329 332 331 331 332 333 334 334 335 335 335 335 334 330 329 328 324 322 322 322 323 326 327 330 331 331 332 332 332 331 328 322 319 319 317 316 315 321 328 327 328 328 328 327 327 327 326 326 325 325 325 325 326 326 326 327 326 326 325 322 320 315 312 312 311 308 306 309 310 309 315 318 317 318 314
336 335 332 332 332 334 333 330 328 328 330 333 332 333 334 335 334 334 335 335 335 335 332 329 330 327 323 321 319 320 322 325 328 330 330 330 331 331 331 329 324 320 319 319 318 317 315 319 326 328 328 328 328 326 327 327 327 326 326 326 325 325 325 326 326 326 326 326 326 324 323 319 313 311 311 310 307 306 308 308 310 311 313 316 315
336 335 332 332 333 334 333 331 331 331 332 334 334 335 335 335 334 334 335 335 335 334 331 330 329 325 322 320 318 317 319 323 328 330 330 329 330 329 329 326 320 319 319 319 319 319 317 316 321 326 328 327 327 327 326 327 327 327 327 327 326 325 325 325 326 326 327 327 326 325 324 322 316 311 310 311 309 305 306 307 308 311 313 313 314
336 334 331 331 334 334 333 332 332 332 333 334 334 335 335 335 335 334 335 335 334 332 330 330 328 324 321 320 318 317 317 321 325 328 329 328 328 327 327 323 319 320 320 320 321 321 319 317 317 321 326 327 326 327 327 327 327 327 327 327 326 325 326 326 326 327 327 327 327 326 325 324 319 312 309 311 310 306 304 305 307 310 313 310 309
335 333 330 331 334 334 333 332 331 331 331 332 334 334 334 335 335 334 335 335 334 331 331 330 328 325 323 320 318 318 317 319 321 323 326 326 324 322 323 322 320 320 320 321 322 321 320 319 316 316 321 325 327 327 326 327 327 327 327 326 326 325 326 326 327 327 327 327 327 327 327 325 321 314 309 309 310 308 305 304 305 305 306 305 304
335 332 329 330 334 334 332 331 330 330 330 331 332 334 335 335 335 334 334 334 332 332 331 329 328 326 324 321 318 318 317 317 317 319 321 321 318 316 320 322 320 319 321 322 321 319 317 317 316 315 316 320 325 327 326 327 327 327 327 326 326 326 326 326 326 327 327 327 327 327 327 325 320 315 309 307 309 309 307 305 304 304 304 304 304
335 331 329 331 333 333 333 332 330 329 330 330 331 334 336 336 335 334 334 333 332 332 330 328 327 325 324 322 319 318 317 316 316 316 316 316 313 311 315 320 319 319 321 320 319 319 319 317 315 314 314 314 322 327 326 327 327 326 326 326 326 326 325 326 327 327 326 327 328 327 327 324 318 316 310 306 309 309 309 308 305 305 304 304 304
336 332 330 331 332 333 332 331 329 329 331 332 332 333 336 335 335 334 333 333 333 332 330 328 327 325 325 325 324 323 322 320 319 318 315 313 311 309 311 316 318 320 321 320 322 326 327 322 316 314 313 312 319 326 326 326 327 327 327 326 326 326 326 326 327 327 327 327 327 327 326 322 317 316 311 305 307 309 309 309 308 307 306 305 305
336 333 330 331 332 333 332 331 329 330 332 333 333 334 336 336 335 334 332 332 333 332 330 329 328 324 325 329 329 329 328 326 324 321 317 312 310 309 310 315 318 320 322 324 326 330 331 327 320 316 315 313 317 324 326 326 326 326 326 326 326 327 327 326 327 327 327 328 327 327 326 321 317 315 311 306 306 307 307 308 309 309 308 307 306
336 333 332 331 331 332 332 330 329 330 332 334 334 335 335 335 335 334 333 332 333 333 331 331 329 324 325 330 331 331 331 329 327 324 320 315 310 309 311 315 318 320 322 326 329 330 332 330 326 322 319 317 318 322 325 326 326 327 326 326 326 327 327 327 327 327 328 327 326 327 325 319 316 315 311 306 305 305 305 306 307 308 309 309 308
337 335 334 333 331 332 333 331 329 329 333 335 335 335 334 334 334 333 332 331 332 332 331 330 327 325 326 330 331 331 331 331 330 328 324 321 314 309 312 315 318 320 321 327 331 331 332 331 330 328 326 324 324 325 327 328 329 329 328 327 327 326 326 325 326 327 328 327 326 327 326 319 315 313 309 307 306 305 305 305 304 305 306 307 308
337 336 336 335 333 332 333 333 331 329 332 335 335 336 335 334 333 333 332 331 332 331 329 329 328 327 329 329 329 330 331 331 331 330 328 327 320 311 311 315 318 319 321 328 332 331 332 331 331 331 330 330 329 329 330 330 330 329 329 327 325 325 325 325 326 327 327 327 327 328 326 321 316 313 309 307 308 307 307 306 305 304 304 304 305
337 337 336 335 334 333 333 334 333 331 332 334 335 335 335 333 333 332 332 331 330 329 327 327 329 330 331 330 329 329 331 331 331 331 330 329 326 315 310 314 318 319 321 327 331 330 331 331 331 332 331 331 331 331 330 330 330 330 328 326 325 325 326 327 328 327 327 327 328 329 328 322 317 314 311 308 309 310 311 309 307 306 306 305 304
337 336 336 335 334 334 333 333 334 332 332 334 334 334 333 333 333 332 331 329 327 327 326 326 329 330 331 331 330 330 331 332 331 331 331 330 327 317 310 312 317 318 320 326 330 330 330 330 330 331 331 331 331 331 330 331 331 330 329 327 326 326 326 328 329 329 328 329 330 329 329 327 321 316 314 311 310 311 311 312 311 310 311 310 309
336 335 335 334 334 335 334 333 333 332 333 334 334 333 333 332 333 331 329 328 326 326 326 328 330 330 332 332 332 332 331 332 332 331 331 331 328 319 311 311 315 318 319 324 329 329 329 329 329 330 330 330 330 331 331 331 331 331 329 328 328 327 327 327 328 329 330 329 330 330 330 330 326 322 319 316 313 312 311 312 313 313 314 314 314
335 335 334 334 334 334 334 333 333 332 333 334 334 333 333 333 332 330 329 329 328 327 327 328 330 331 332 332 332 332 333 332 332 331 332 331 329 324 316 312 314 318 318 321 327 329 329 329 329 329 329 330 330 331 331 331 332 331 330 328 328 329 328 328 328 329 330 330 330 330 331 331 330 328 324 322 319 317 314 313 313 313 314 315 315
334 334 334 334 334 334 334 333 333 332 333 333 334 333 333 332 331 331 331 330 329 329 329 330 331 331 332 331 331 330 331 332 331 331 332 332 330 328 323 315 314 317 319 320 323 327 329 329 328 328 328 329 330 331 331 332 332 331 330 329 329 329 329 329 329 329 330 330 330 330 331 331 331 331 330 327 325 323 320 318 316 314 314 314 314
334 333 334 333 334 334 334 333 333 333 332 332 333 333 332 332 332 332 332 331 330 331 330 331 331 331 330 330 330 330 330 331 331 331 331 331 330 330 328 320 314 315 317 319 321 325 329 329 329 328 328 329 330 331 332 332 332 333 332 330 329 330 329 329 329 330 330 330 331 331 331 331 331 332 332 331 329 328 327 325 322 320 318 317 316
333 334 334 334 334 334 334 333 333 333 333 332 333 332 331 332 332 331 331 331 330 329 329 329 329 330 330 330 330 330 330 331 331 330 330 331 329 330 331 325 318 314 316 319 319 323 327 328 329 330 329 330 331 332 332 333 333 333 332 330 330 331 330 329 329 330 330 331 331 331 331 331 331 331 332 332 331 330 330 329 328 326 324 322 321
333 333 333 333 333 334 333 333 333 333 333 333 332 331 331 331 331 331 330 329 328 328 327 327 328 329 330 330 330 330 330 331 330 330 330 330 329 330 331 330 326 321 320 322 322 323 325 327 330 331 330 330 331 332 332 332 333 333 332 331 332 331 330 330 330 330 330 331 331 332 332 331 331 331 331 332 332 331 331 332 331 330 329 327 326
332 332 333 333 333 333 333 332 332 333 333 334 332 331 331 331 330 329 328 327 327 327 326 327 328 329 330 330 330 329 329 329 330 330 330 330 330 331 332 332 331 328 326 326 326 327 327 329 331 331 331 331 331 332 332 331 332 333 333 332 333 332 331 331 330 331 330 330 331 332 332 332 332 331 331 332 332 333 333 333 333 332 332 330 329
331 332 332 333 332 332 332 332 332 332 333 334 332 332 331 329 329 327 327 327 327 326 327 327 328 328 329 330 329 329 329 328 329 329 329 330 330 330 332 332 332 332 330 329 328 328 328 329 329 329 329 330 330 331 331 331 332 333 333 333 333 333 332 332 332 331 331 331 332 332 332 333 332 332 333 333 333 333 333 333 334 333 333 333 332
330 331 332 332 332 332 332 332 331 331 332 332 331 332 331 329 328 327 328 327 326 326 327 327 328 328 328 329 329 329 329 328 329 328 329 331 330 329 331 332 332 332 331 330 329 329 329 329 328 328 328 329 330 330 331 332 333 334 333 333 333 333 333 333 332 332 332 332 332 332 332 332 332 332 333 333 334 334 333 333 333 334 334 334 334
329 330 331 332 332 331 331 331 330 330 330 329 329 329 329 329 329 327 328 326 325 325 327 327 327 327 327 328 328 328 328 329 328 328 329 330 330 328 329 331 332 332 332 331 330 330 330 330 329 328 328 328 329 330 332 333 334 333 333 332 331 331 331 332 333 332 332 332 332 332 332 332 332 331 332 333 334 335 334 333 333 334 334 334 334
328 328 330 330 330 331 330 330 330 329 328 327 327 327 327 327 326 326 326 325 324 325 325 326 326 326 326 326 327 327 327 328 329 328 328 328 328 328 328 330 331 331 332 332 331 331 330 330 330 330 330 330 330 331 333 333 333 332 331 331 330 330 330 332 332 332 331 331 331 331 330 330 330 331 331 332 333 334 334 334 334 334 334 334 334
327 327 328 329 329 329 329 330 330 330 329 328 327 326 326 325 324 325 326 326 325 325 324 325 325 325 325 324 325 325 325 326 328 328 328 327 328 328 328 329 331 331 331 331 331 331 330 330 331 331 331 331 332 333 333 333 333 332 331 330 330 330 330 330 331 331 331 331 331 330 330 330 330 330 330 330 331 332 333 334 334 334 334 334 334
326 326 327 328 328 328 328 328 329 330 330 329 328 326 325 324 325 326 326 326 326 325 325 325 325 324 324 324 324 324 324 324 325 327 327 327 327 328 328 328 328 330 330 330 331 331 331 331 331 332 332 332 333 333 333 332 331 331 330 330 330 329 329 330 330 330 331 331 331 331 331 330 330 330 328 328 329 329 331 332 333 333 334 334 334
325 325 325 326 326 327 326 326 327 329 329 329 328 326 324 325 326 326 326 326 326 326 325 325 325 325 324 324 324 324 324 324 324 325 326 327 327 328 329 328 327 329 329 330 331 331 331 331 332 332 332 332 333 332 332 331 331 330 329 329 329 330 331 331 330 330 330 330 330 330 331 331 330 330 329 329 329 329 330 330 331 332 332 332 333
325 324 324 324 325 325 326 326 326 326 326 327 326 325 325 325 325 326 326 327 327 327 327 326 326 326 326 325 325 325 325 324 324 324 325 326 327 328 329 328 328 329 329 329 329 331 332 332 332 332 331 331 331 331 332 331 330 329 329 329 329 330 330 330 330 330 329 328 329 330 331 331 331 331 331 330 330 330 330 330 331 332 332 332 332
325 324 324 323 323 325 325 325 324 324 324 324 325 325 325 323 323 325 326 327 328 328 328 329 328 328 327 327 326 326 325 325 324 324 325 325 326 328 330 329 329 328 329 329 327 329 332 332 332 332 331 330 330 331 332 331 329 328 327 328 329 330 330 330 331 330 329 328 328 329 330 330 330 330 330 331 331 331 331 331 330 331 331 331 331
325 325 324 323 322 323 324 323 322 322 323 323 325 325 323 321 321 322 323 325 327 327 328 330 330 330 328 327 327 326 325 324 324 325 325 325 326 327 330 330 329 328 329 329 327 327 329 331 331 331 330 329 329 330 331 330 329 328 326 326 328 330 330 330 330 330 329 329 327 328 329 328 328 329 329 330 331 331 331 332 332 331 331 331 330
326 326 325 324 322 322 323 322 322 322 323 324 324 324 322 321 321 321 322 325 326 327 328 330 331 331 330 329 328 327 325 323 324 325 325 326 327 328 329 330 329 329 328 328 328 327 328 329 330 330 328 328 329 329 329 328 327 327 327 326 326 327 328 328 329 329 330 329 328 328 328 328 328 329 329 330 330 331 331 332 333 333 333 332 332
327 327 326 325 322 322 323 322 322 322 322 324 324 323 322 321 321 321 322 325 326 327 328 330 331 331 331 330 328 327 325 324 325 326 326 326 327 328 328 328 328 329 328 328 328 328 329 329 330 329 327 326 327 327 326 325 325 326 326 326 327 328 328 328 329 329 329 329 329 329 329 329 328 328 329 329 328 330 331 332 332 333 333 332 332
329 328 327 326 324 322 322 322 322 322 322 322 322 322 322 321 321 321 322 324 326 327 328 330 331 332 331 331 329 327 325 326 327 327 327 327 327 327 327 327 327 328 329 329 329 329 329 329 328 327 327 327 327 326 325 325 326 326 327 328 329 329 329 329 330 330 330 330 329 329 329 329 329 328 329 328 328 328 329 330 330 331 331 331 331
Wind_Speed
16 14 13 11 10 9 7 7 6 6 6 6 6 7 8 9 9 10 10 10 9 8 6 5 5 6 7 8 9 11 12 11 11 10 9 8 7 6 8 12 13 14 13 12 11 10 10 9 9 10 9 8 9 10 11 13 15 17 17 18 21 21 18 15 13 10 9 9 8 9 9 9 8 7 8 8 8 8 8 8 7 7 7 6 5
16 14 13 10 9 8 7 6 5 5 6 5 6 6 8 10 10 10 10 10 9 8 6 5 5 6 7 8 10 12 12 12 11 9 8 7 6 8 12 14 13 13 13 12 11 10 9 9 9 9 7 7 9 10 11 12 14 16 18 19 20 22 21 19 16 13 10 8 7 7 8 8 8 8 7 7 7 7 7 7 6 5 5 3 3
15 15 14 11 10 8 7 6 4 5 5 5 5 6 8 10 10 10 10 10 10 9 7 5 5 6 7 8 10 12 13 12 10 8 6 6 8 11 12 12 13 13 12 11 11 9 9 9 9 8 6 6 8 10 10 11 13 16 18 20 20 20 21 19 18 16 12 9 5 4 5 5 6 7 7 7 7 7 7 7 6 4 3 2 1
15 17 16 15 14 12 9 7 6 5 5 5 5 6 9 11 12 11 11 10 10 9 7 6 6 7 9 10 11 12 12 10 8 6 6 8 10 11 12 12 12 12 11 10 9 9 8 9 9 8 7 7 9 9 9 9 11 13 14 16 19 20 19 18 18 17 15 12 7 2 4 4 4 6 7 7 7 8 7 7 6 4 4 1 1
17 20 20 19 18 16 13 10 9 8 6 6 6 7 10 13 13 12 12 11 10 9 8 7 6 8 10 11 13 12 10 9 7 7 9 10 12 12 12 12 11 11 11 10 9 9 9 9 9 8 8 8 9 9 9 9 10 11 11 13 17 19 19 19 19 18 17 15 11 7 4 4 5 6 7 7 7 8 7 6 4 3 3 2 7
20 22 21 20 18 17 14 12 10 8 7 6 6 9 12 13 14 13 12 12 10 10 8 7 7 9 11 13 13 11 9 7 7 9 11 12 13 13 13 12 11 11 10 10 9 8 9 9 9 8 8 8 8 8 9 10 12 13 12 12 15 18 18 19 19 19 18 16 14 12 9 7 8 7 5 6 6 6 5 3 3 4 4 5 13
19 21 21 19 16 15 13 11 10 8 7 6 8 10 13 14 14 13 13 12 10 10 9 8 9 11 13 14 12 10 8 7 8 11 12 13 14 14 13 12 11 10 9 9 8 7 7 8 8 8 8 7 7 8 8 9 11 12 11 10 13 16 18 19 19 20 19 17 15 14 12 11 12 12 9 8 7 7 6 4 4 5 5 7 14
17 19 19 19 16 14 12 10 9 7 7 7 8 11 13 15 15 14 13 12 11 10 10 10 11 12 13 13 10 9 7 8 11 12 12 13 14 14 13 12 11 10 9 8 6 6 6 7 8 8 9 8 8 8 8 8 9 10 11 11 12 15 17 19 19 20 20 18 16 15 13 12 12 13 11 10 9 9 8 6 5 5 7 9 13
18 18 19 20 18 15 13 10 8 7 7 8 10 12 14 15 15 14 13 12 11 11 11 11 11 11 12 11 9 7 8 11 12 11 12 13 13 13 12 11 11 10 8 6 5 5 6 8 9 8 9 9 8 9 8 8 9 11 12 12 12 14 16 18 19 20 20 19 17 15 13 11 10 12 10 9 8 8 8 6 4 5 7 9 12
18 19 20 20 19 17 14 12 9 8 8 10 13 13 14 15 15 14 12 12 11 11 11 11 12 11 11 9 8 6 9 12 12 11 12 12 12 12 11 11 11 10 8 5 4 3 4 8 11 11 11 10 8 8 9 8 9 12 13 13 13 14 16 18 19 20 19 19 18 16 14 11 7 8 9 7 7 6 7 5 4 4 7 7 9
17 19 20 19 19 17 15 13 11 9 10 13 14 14 15 15 14 13 12 12 12 12 12 12 11 11 9 8 6 6 9 12 11 12 12 11 11 11 10 10 10 10 7 5 3 3 3 8 13 14 13 10 8 8 9 8 9 12 12 12 13 14 16 18 19 19 19 19 19 17 15 12 7 5 7 6 6 5 4 3 3 6 8 7 6
17 19 20 18 17 16 15 14 12 10 11 14 14 14 14 14 13 13 13 13 13 13 13 12 10 10 8 6 5 6 10 12 12 12 11 10 10 10 10 10 10 8 6 5 4 3 3 9 14 16 13 10 9 8 8 7 8 10 12 12 13 14 15 17 18 18 19 19 19 18 16 13 9 5 5 5 5 5 4 4 6 8 8 6 6
17 18 20 18 17 15 14 13 12 10 12 15 14 14 13 13 12 12 14 14 14 13 13 11 10 9 7 6 5 7 11 12 12 11 11 10 9 8 9 9 9 7 5 4 3 3 4 10 16 16 13 11 9 8 6 7 8 9 11 11 12 13 15 17 18 18 18 19 20 19 16 13 12 9 6 5 6 6 6 6 7 8 9 8 7
16 19 19 17 17 14 14 12 11 10 13 14 13 13 12 12 11 12 13 13 12 11 12 10 9 8 6 6 7 9 12 12 12 11 10 9 9 8 8 8 8 6 4 4 4 4 6 12 16 15 13 11 9 7 5 5 7 8 10 11 12 13 14 16 16 17 18 19 20 20 16 13 12 11 9 6 6 5 5 6 6 7 8 9 8
16 19 18 16 16 14 13 11 10 11 13 14 13 13 12 11 11 12 12 11 11 10 11 10 9 7 7 7 8 10 12 11 12 11 10 9 8 7 7 7 7 5 3 4 6 6 8 14 16 15 13 11 9 6 4 4 6 7 9 10 12 12 13 14 15 15 17 18 20 20 17 14 11 9 11 7 5 5 5 5 6 7 8 8 8
16 18 18 17 15 13 13 11 11 11 13 14 13 13 12 11 11 12 11 11 12 11 10 9 8 7 7 8 8 10 12 11 11 10 10 9 8 7 7 6 6 5 4 6 8 7 9 15 16 15 13 11 9 6 4 3 5 6 8 9 11 12 12 12 13 14 16 17 19 20 18 14 11 8 10 8 4 5 5 6 6 7 8 8 7
15 16 18 18 15 13 12 12 12 12 14 14 13 14 13 12 12 13 12 12 13 11 10 9 8 7 7 7 7 10 12 11 10 10 9 9 8 7 6 5 4 4 7 9 9 9 11 15 16 15 13 11 9 6 4 1 3 5 7 8 10 11 11 11 11 13 14 16 18 20 18 15 11 9 10 9 4 2 3 5 7 7 8 7 7
14 15 18 17 15 13 12 12 13 14 15 15 15 14 14 14 14 14 13 13 13 12 10 9 8 7 7 6 7 9 11 11 10 9 9 8 8 7 7 5 4 6 10 11 10 10 11 15 17 15 14 12 9 7 4 1 2 4 6 7 9 10 10 10 10 12 13 14 16 19 18 16 13 9 9 10 6 2 2 5 7 8 8 7 7
14 15 18 16 14 14 13 13 13 14 15 14 15 14 14 15 15 15 15 14 13 12 11 9 8 7 7 7 7 8 10 11 10 9 8 7 7 7 6 4 4 8 12 12 11 11 11 14 17 16 14 12 10 8 5 2 1 3 5 6 7 8 8 9 10 11 12 13 15 17 18 17 14 10 7 9 9 6 4 3 5 7 8 7 7
14 16 18 16 14 14 13 13 13 14 14 13 13 13 14 14 14 14 15 15 15 14 12 10 8 7 7 7 7 8 10 11 10 9 8 7 7 6 5 4 5 9 12 13 12 11 11 12 15 17 15 14 11 9 6 3 1 2 3 4 5 6 7 8 8 10 11 12 14 15 17 17 15 10 6 8 9 8 6 3 4 6 7 6 6
15 16 18 16 14 14 14 14 14 14 13 13 12 12 13 14 14 15 15 15 16 15 14 11 10 9 8 8 8 8 9 10 11 10 9 9 8 6 5 5 6 9 11 12 12 11 10 11 13 16 17 15 13 10 7 4 2 1 2 2 4 5 7 7 7 9 10 11 12 14 16 16 14 11 6 5 7 7 6 4 4 4 5 5 5
16 17 18 17 14 14 14 14 14 13 13 13 13 13 14 14 15 16 17 16 17 16 15 13 10 9 7 7 8 7 8 8 10 10 9 9 8 6 6 6 7 9 10 10 10 10 10 10 11 14 17 17 15 12 8 4 2 1 2 3 4 5 6 7 7 9 10 10 11 12 15 15 13 11 5 3 5 5 5 4 4 3 3 3 4
16 18 18 18 16 14 14 14 14 13 13 13 13 14 14 15 16 17 18 17 17 17 15 13 10 9 8 8 9 9 8 7 8 8 8 8 7 7 7 8 8 9 10 9 9 9 9 9 10 12 16 18 17 14 9 6 2 1 2 4 5 5 5 6 7 9 10 9 10 11 13 14 12 10 6 2 3 4 4 4 4 3 2 2 2
16 17 18 19 18 15 14 13 14 14 14 14 13 13 14 15 17 18 19 17 17 17 15 13 11 10 9 10 10 10 10 8 7 7 7 7 6 7 8 9 9 10 10 10 10 10 9 8 7 9 13 16 18 15 10 7 4 1 2 4 5 6 5 5 7 8 8 8 9 10 12 12 11 9 6 2 2 3 4 4 4 3 2 2 1
16 16 18 19 17 16 15 14 14 15 14 14 14 13 15 17 18 19 19 17 17 16 15 13 12 11 10 10 10 10 9 8 7 6 6 6 6 7 9 10 11 11 11 12 12 10 9 8 7 7 9 14 18 16 11 8 5 3 3 5 6 6 5 5 6 7 7 7 9 10 11 11 9 8 5 2 1 2 3 3 4 4 3 2 1
16 17 18 18 17 16 15 14 15 15 14 13 13 14 17 18 19 20 19 17 17 17 15 14 12 9 9 10 9 9 8 7 6 5 5 5 5 7 9 10 12 12 13 13 11 10 9 9 8 8 8 12 17 16 12 9 5 4 6 6 6 7 6 5 6 7 7 8 9 10 11 10 8 7 3 1 1 1 1 1 3 4 3 3 2
17 17 18 18 17 17 16 15 16 16 14 13 14 16 18 19 20 20 19 18 17 17 15 13 10 8 9 9 7 7 7 7 5 4 4 5 5 8 10 11 12 13 14 13 12 11 11 11 10 10 10 10 13 14 11 9 6 5 6 6 6 6 6 7 6 6 7 8 10 11 11 10 8 7 3 1 1 0 1 1 1 2 2 3 3
17 18 19 19 17 17 16 15 16 16 15 14 15 17 18 19 20 20 19 18 17 15 13 12 10 8 8 7 7 6 7 7 5 5 5 5 5 8 10 12 13 14 14 14 13 13 12 12 12 11 11 10 10 10 9 7 5 4 4 4 5 6 6 7 6 6 6 8 10 11 12 11 9 8 3 1 2 2 2 3 2 2 2 2 2
18 19 19 19 17 17 16 15 15 15 15 16 16 17 18 19 20 19 18 16 14 12 11 11 10 9 8 7 6 6 7 7 6 6 6 5 5 7 11 13 14 14 15 14 14 13 12 12 12 11 11 9 8 7 7 6 4 3 3 4 4 4 4 4 4 5 6 7 9 10 12 12 10 9 5 2 3 3 3 4 4 3 3 3 3
18 19 19 19 17 17 17 16 15 14 15 17 17 18 18 18 19 17 16 14 12 11 10 10 10 9 8 7 7 6 6 6 6 7 7 6 5 6 10 13 14 15 15 15 14 13 12 11 11 10 9 7 6 6 5 4 3 2 2 2 2 1 1 3 5 6 6 7 8 10 11 12 11 9 6 4 3 3 3 4 4 4 4 4 4
18 18 20 19 17 17 17 16 15 14 15 16 17 18 18 17 16 15 13 12 11 11 11 11 10 9 9 8 8 8 7 7 7 8 8 7 6 5 9 13 14 15 15 15 15 13 11 10 9 8 7 6 6 5 4 3 2 1 1 1 2 1 2 4 5 7 7 7 8 9 10 11 11 9 7 5 4 3 3 3 4 4 5 5 4
18 19 20 19 17 18 18 17 16 15 15 16 17 18 17 17 15 14 12 11 12 12 12 11 10 9 9 9 10 10 9 9 9 9 8 8 6 5 8 12 13 14 15 16 16 13 10 9 8 8 7 6 4 4 3 3 2 2 2 2 3 2 2 3 4 6 7 7 8 9 10 10 10 10 9 7 5 3 3 3 3 3 5 5 5
17 19 19 18 18 18 19 19 17 16 15 16 17 17 17 16 15 13 12 12 13 12 12 12 11 10 10 10 10 11 11 11 10 10 9 8 8 6 6 10 13 14 15 16 16 13 10 9 8 8 7 6 4 3 3 4 4 4 3 3 4 3 3 3 3 4 5 6 7 8 9 9 10 9 8 8 7 5 3 3 3 4 5 5 6
17 18 19 18 17 18 20 20 18 17 16 16 17 17 16 15 14 14 13 13 13 13 13 12 12 12 11 11 11 11 12 12 11 10 10 9 9 8 6 8 12 14 14 15 16 14 11 10 8 8 7 6 5 4 4 6 7 7 5 5 5 4 4 3 3 3 3 5 6 7 7 9 9 9 8 7 6 6 6 5 4 4 4 5 6
17 18 17 17 18 19 19 20 19 17 17 16 17 17 16 15 15 15 14 14 14 14 13 13 12 12 12 12 11 11 12 12 11 10 11 10 10 10 7 7 10 13 14 15 15 15 13 11 9 9 9 7 6 5 6 8 10 9 8 7 7 6 5 4 4 3 3 4 5 6 6 7 7 8 8 7 6 5 5 5 5 5 4 4 4
17 17 17 17 19 19 19 19 19 18 18 17 17 18 17 16 16 17 16 15 14 14 13 12 12 12 12 12 11 12 12 12 11 11 11 11 11 10 9 9 10 12 14 14 15 16 15 12 11 11 10 8 6 5 7 9 10 9 8 9 9 8 6 6 5 4 4 5 5 6 7 7 6 7 7 7 7 6 5 5 4 4 4 4 4
16 16 17 18 19 19 19 19 20 20 19 18 18 18 17 17 17 16 16 14 13 14 13 12 12 13 13 11 11 12 12 11 11 11 11 10 9 9 10 11 11 12 13 13 14 15 15 13 12 11 10 8 6 6 7 10 11 8 7 9 10 9 7 6 6 5 5 6 7 7 7 7 7 7 6 6 6 6 5 5 5 4 4 3 3
15 17 17 17 18 19 19 19 20 20 19 19 18 18 17 17 17 15 14 13 13 14 14 12 12 12 12 11 11 12 12 11 10 10 9 9 9 8 8 10 12 12 13 13 13 13 13 13 11 11 10 8 6 7 10 12 11 9 8 8 8 8 8 8 7 7 7 7 8 8 8 7 7 7 7 6 6 6 6 6 5 4 4 4 4
15 16 17 17 17 18 18 19 20 20 19 19 19 18 18 18 16 15 14 13 13 13 13 11 11 11 11 11 11 11 11 11 11 10 9 8 8 8 8 8 9 10 12 14 13 12 12 11 11 11 10 8 8 10 12 13 11 10 8 8 8 8 9 10 9 9 8 9 9 9 8 8 8 8 8 7 6 6 6 7 7 6 5 5 5
14 15 17 17 18 18 19 20 20 20 20 21 21 20 19 18 16 15 14 12 11 11 11 11 11 11 11 12 11 9 10 11 10 10 10 9 8 8 7 7 7 8 9 11 12 12 11 11 11 11 10 9 10 12 12 12 11 10 9 8 9 10 11 11 10 10 10 11 11 11 10 9 9 8 8 7 7 7 6 7 7 7 7 7 6
15 16 17 18 18 19 20 21 21 20 21 21 21 20 19 18 16 15 14 11 9 9 9 9 10 10 10 12 11 10 10 10 10 10 10 11 10 8 7 6 7 8 7 8 10 11 11 11 11 11 10 10 12 13 13 12 11 11 10 10 10 11 11 11 11 11 11 12 12 12 11 11 10 9 9 9 8 8 7 7 7 8 9 9 8
16 17 18 19 19 19 20 21 22 21 21 21 20 19 18 16 14 12 11 10 9 9 9 9 9 10 11 11 12 11 10 10 11 9 9 10 10 9 7 6 7 7 7 7 8 10 11 12 12 12 12 12 13 13 12 10 10 11 11 11 11 9 9 9 10 11 11 12 12 12 13 13 12 11 11 11 10 9 9 8 8 9 9 9 9
16 17 18 19 20 20 20 21 23 23 22 20 19 18 16 14 11 9 8 9 10 10 11 11 12 12 12 11 11 11 10 11 11 10 9 9 9 9 8 7 7 7 7 7 8 10 11 12 14 14 14 14 14 13 10 8 9 10 10 9 9 9 8 6 7 8 9 10 11 12 12 12 12 11 11 11 10 10 10 10 9 10 10 9 9
17 17 18 20 22 21 20 21 22 24 23 21 20 17 15 13 11 10 9 11 12 13 13 13 13 13 13 12 11 11 10 11 11 12 11 10 9 10 9 9 8 7 7 7 8 9 10 11 12 14 15 14 12 10 8 7 7 7 6 6 7 8 6 5 5 6 6 6 7 8 9 9 10 10 11 11 10 10 10 10 10 10 10 10 10
18 17 17 19 21 22 21 20 20 22 22 21 19 17 15 14 13 13 14 13 13 13 13 13 13 13 13 13 12 12 12 11 11 11 12 11 10 10 10 10 10 9 8 7 8 9 9 9 10 11 11 10 8 8 7 6 6 5 5 6 6 5 4 5 7 6 4 6 7 6 6 6 7 8 9 9 9 10 9 10 10 10 10 9 9
19 17 16 17 19 21 21 20 20 20 21 20 19 17 17 16 14 14 14 13 12 12 11 12 12 12 13 13 12 12 12 12 11 11 12 12 11 11 11 11 11 11 10 9 9 8 9 8 8 8 7 7 8 7 6 6 5 5 5 6 6 6 6 8 9 8 7 7 6 4 4 4 5 6 7 7 7 8 9 9 9 8 8 8 7
20 17 16 17 18 21 22 21 21 21 21 20 19 19 18 16 14 13 12 12 11 10 9 10 10 11 12 12 12 12 12 12 12 12 12 12 12 12 11 11 12 12 12 11 11 10 9 9 9 8 8 8 9 7 6 6 5 5 5 6 6 6 8 8 8 9 9 7 4 4 5 5 6 7 7 7 8 8 9 9 9 9 8 7 7
22 19 18 17 18 20 23 23 23 22 22 21 21 21 19 17 15 14 13 12 11 10 9 9 10 10 11 11 11 11 12 12 12 12 12 13 13 12 12 11 12 12 13 12 12 12 12 11 10 10 9 10 8 7 6 6 6 5 5 5 5 6 6 7 7 8 8 9 7 5 5 6 7 7 8 8 9 9 9 9 9 9 9 9 8
23 21 19 17 17 20 23 25 25 24 23 23 23 22 20 18 16 15 15 14 12 11 10 10 10 11 12 12 12 12 12 11 11 11 12 12 12 12 12 11 12 12 13 12 12 13 13 12 12 11 10 10 9 8 7 7 7 7 7 7 7 7 7 7 8 8 8 10 10 7 6 6 6 5 6 8 8 9 9 9 9 9 9 9 9
23 22 21 19 19 20 22 25 25 25 25 24 24 23 22 20 19 18 17 15 13 12 11 10 11 12 12 12 12 11 11 11 11 11 11 11 11 11 11 11 12 13 13 13 13 13 12 12 12 11 11 11 10 9 9 9 9 9 9 8 8 8 7 7 7 7 7 8 9 9 8 8 7 5 4 6 8 8 9 8 8 9 9 9 9
24 23 23 22 21 21 21 23 24 25 26 26 26 25 24 22 21 20 19 17 15 13 13 11 11 13 12 11 10 10 10 10 11 12 11 11 11 11 11 11 12 13 13 13 13 13 12 12 12 12 11 11 10 10 10 10 10 10 9 8 7 7 7 6 6 7 7 7 9 9 8 8 9 7 5 6 6 6 7 8 8 8 9 9 10
Wind_Direction
176 182 184 175 168 166 164 152 150 157 155 164 165 175 175 168 159 149 142 135 129 126 121 103 93 109 124 134 143 143 138 134 131 129 124 118 103 87 96 108 112 110 109 112 113 108 104 101 96 97 96 101 116 123 120 103 92 88 88 88 81 82 89 92 92 91 92 92 92 98 101 103 106 108 112 108 106 109 108 106 106 107 106 111 111
175 179 179 173 170 165 164 158 153 158 161 168 170 181 180 176 165 154 148 140 135 133 133 116 102 115 126 137 145 141 135 132 130 128 126 117 100 103 109 108 109 110 115 116 112 109 104 103 102 102 100 103 117 122 118 106 96 91 89 86 78 74 76 80 82 83 85 88 93 104 108 115 123 122 122 117 114 116 114 104 97 107 115 118 119
178 177 174 172 174 170 165 165 164 166 174 180 183 190 185 180 169 160 151 144 141 137 143 133 119 127 133 142 143 139 134 132 131 132 127 112 109 115 111 107 109 111 114 111 109 108 102 104 105 106 110 111 115 118 118 111 100 94 92 83 74 68 65 66 69 72 73 76 94 124 131 136 145 147 140 133 132 125 119 106 92 98 106 112 193
182 182 180 180 180 180 175 176 180 182 186 191 202 199 188 182 174 166 156 149 145 143 150 146 139 138 142 148 142 138 134 132 137 134 119 110 113 113 108 109 114 115 113 109 109 108 105 107 108 110 113 114 111 111 113 111 106 100 93 79 68 63 58 57 57 57 59 62 72 115 174 168 156 165 164 153 146 135 127 116 110 111 100 79 360
184 188 188 186 185 183 180 182 187 191 191 198 210 198 186 180 174 168 160 152 148 148 152 155 151 144 148 150 142 138 135 137 141 125 117 114 110 107 107 113 117 117 115 112 113 112 114 118 118 116 113 117 115 108 100 93 99 94 77 66 62 60 57 53 50 47 47 52 62 76 129 163 142 150 173 170 158 153 145 129 132 123 96 60 74
186 188 190 188 188 185 181 182 185 190 191 201 203 189 180 174 171 167 161 155 152 150 152 158 151 143 148 148 143 140 139 141 134 124 121 113 107 108 110 113 114 114 113 112 113 113 122 125 123 123 117 120 121 111 96 81 89 88 69 60 59 58 57 52 46 43 41 45 57 73 93 116 111 102 143 170 171 168 161 155 165 134 119 107 99
188 187 187 185 187 185 181 178 179 184 190 196 189 180 172 168 167 164 159 155 151 148 149 153 145 143 148 149 148 144 141 139 133 127 119 112 112 114 113 112 111 111 113 114 114 117 127 129 127 129 126 126 123 110 96 82 87 88 73 64 60 56 55 51 45 41 38 40 51 67 82 92 90 81 90 114 126 132 128 138 157 141 128 121 115
188 187 184 180 185 184 180 176 176 182 188 185 177 171 166 166 165 162 158 155 149 146 147 146 145 148 153 155 154 146 140 137 133 123 117 119 121 119 115 113 112 111 114 119 126 135 145 146 139 140 143 142 132 115 100 91 87 80 73 70 64 57 53 49 45 41 38 38 46 57 69 81 90 89 90 99 111 119 123 138 158 135 119 123 126
187 187 182 180 184 183 182 179 178 181 180 168 163 161 161 164 164 161 156 153 150 148 148 148 151 153 158 160 155 145 140 139 130 121 123 127 126 123 119 116 116 114 114 118 130 149 165 168 165 159 156 151 136 123 110 102 94 81 75 72 65 59 55 50 46 42 38 38 42 49 56 68 90 106 106 112 124 135 146 154 162 135 118 128 136
187 186 182 183 184 184 186 183 182 181 171 158 155 155 158 162 163 162 156 152 151 153 153 155 156 155 159 160 153 145 143 141 129 126 132 132 130 127 122 120 119 115 113 110 112 139 167 178 181 172 163 155 138 125 115 104 94 85 80 74 66 60 56 52 47 41 36 36 40 44 46 50 73 114 122 136 153 166 178 184 184 144 115 116 132
187 188 182 182 184 184 185 184 182 182 170 157 155 155 158 161 162 161 156 152 154 158 159 160 158 155 157 156 153 147 146 143 132 133 137 135 135 132 126 123 120 114 108 94 84 109 149 173 177 172 166 159 142 128 117 103 90 86 81 75 67 61 57 53 47 40 35 34 38 42 41 41 50 105 129 144 165 173 190 192 148 118 109 98 104
186 189 183 180 183 184 184 183 180 180 168 158 158 157 159 162 162 162 159 156 159 163 161 161 156 152 154 155 156 149 149 145 135 138 141 141 143 139 131 126 123 114 97 77 72 98 136 163 168 167 165 157 146 140 131 109 89 82 76 70 65 60 56 52 46 40 35 35 36 39 40 40 48 81 115 123 138 132 119 115 109 107 107 86 75
186 187 186 183 180 182 183 181 178 176 165 160 161 158 159 162 163 162 161 160 164 163 157 157 152 151 155 157 156 149 151 147 140 143 147 149 151 146 137 130 125 113 89 75 87 114 136 157 161 161 160 155 152 153 144 113 88 73 69 65 63 60 55 52 47 41 37 36 36 37 39 39 47 60 69 99 122 114 105 103 104 110 112 100 85
189 186 187 186 178 178 180 180 178 174 168 164 161 160 161 164 162 161 161 159 163 156 147 151 152 154 155 153 155 151 151 148 144 148 154 156 155 154 144 133 124 111 89 90 116 134 145 156 159 158 157 159 159 159 153 112 88 70 66 62 62 61 56 53 47 41 37 36 36 35 37 37 45 48 42 72 119 115 110 105 104 114 116 113 113
192 185 186 186 178 176 178 179 179 174 172 168 164 164 165 166 160 159 160 156 157 149 144 152 154 154 149 150 157 154 153 152 151 152 157 160 160 160 152 141 126 110 101 119 135 143 152 159 159 158 160 165 162 161 169 118 90 71 67 64 61 61 57 53 47 41 37 36 36 35 35 37 45 41 31 51 110 116 111 106 105 117 120 122 132
192 185 185 186 178 176 176 173 174 174 172 172 170 167 168 166 158 156 157 154 154 150 150 156 155 152 150 153 161 162 161 161 158 157 159 161 162 163 161 150 126 110 125 136 142 147 157 164 164 163 167 171 166 168 182 132 89 73 66 63 58 60 58 52 46 40 37 36 35 35 34 37 43 35 29 39 93 121 112 110 108 112 123 131 137
190 189 189 187 179 175 177 174 171 172 172 172 171 171 170 164 157 157 158 158 156 153 156 159 158 154 153 154 159 167 169 166 162 160 161 162 163 168 169 157 133 121 137 141 145 151 160 169 170 171 176 176 171 173 184 141 78 71 64 60 55 57 57 50 44 39 35 34 33 33 33 36 38 32 32 36 57 133 100 105 116 117 126 129 127
190 193 191 188 180 177 180 176 172 171 173 171 171 172 169 163 159 159 161 163 159 157 160 162 162 155 152 154 157 168 172 170 164 163 165 165 168 175 175 167 154 133 137 141 147 154 163 174 178 179 183 183 177 177 185 150 61 58 59 59 52 53 56 49 41 36 32 31 31 30 30 34 34 31 34 39 47 35 42 93 121 125 124 122 123
191 193 188 186 182 183 181 176 175 174 173 171 172 171 168 167 162 163 167 167 163 161 165 167 164 153 151 155 162 173 175 171 165 167 171 173 178 183 184 176 157 137 137 142 146 155 164 177 185 187 188 188 184 183 190 171 75 45 50 52 45 48 52 47 39 33 28 25 27 27 26 30 31 30 30 36 41 28 31 95 128 128 120 119 125
192 193 187 185 183 187 183 177 179 178 175 173 176 172 172 173 167 170 171 167 166 165 167 169 167 157 154 158 170 180 176 173 167 168 174 182 189 192 192 175 149 138 138 143 146 153 162 175 188 194 195 191 190 191 196 193 132 58 46 43 40 45 43 40 37 33 28 21 21 22 21 25 27 27 30 32 35 27 27 64 111 127 125 125 127
193 195 191 187 185 187 185 182 184 181 179 180 177 173 179 178 173 177 174 169 169 169 168 171 174 166 160 159 170 179 176 178 174 173 179 189 195 193 189 171 148 141 140 143 146 153 162 173 187 197 200 196 194 197 201 201 168 91 42 34 31 35 36 35 36 32 26 19 16 17 16 18 20 22 34 37 35 30 27 45 73 106 120 125 126
196 196 192 188 188 190 188 187 190 184 184 187 178 177 182 178 180 182 176 174 172 172 173 174 177 169 161 159 164 168 171 183 183 183 191 198 199 194 188 173 155 146 141 142 146 152 158 170 184 196 201 198 195 200 202 195 177 97 5 4 10 17 26 27 30 27 22 18 13 12 11 9 11 15 30 52 47 42 34 44 66 80 95 107 119
201 197 192 190 192 193 193 191 191 187 186 190 184 184 182 175 182 182 174 174 175 177 178 176 175 169 167 163 160 161 166 182 190 192 202 209 207 201 193 175 162 152 145 143 145 145 146 161 181 194 200 199 196 199 200 190 173 80 348 346 357 1 7 6 13 19 17 17 13 8 5 2 4 8 17 62 73 60 48 52 66 73 82 87 94
205 200 193 194 196 194 197 195 192 190 187 189 190 187 182 177 180 179 174 174 177 181 180 177 177 178 174 164 160 159 165 177 187 193 202 210 208 199 190 175 165 157 148 144 138 129 126 134 159 185 196 196 194 197 200 194 188 202 318 332 342 347 349 351 4 12 11 15 14 8 1 357 359 2 8 50 101 77 61 60 66 67 68 70 62
206 203 199 199 198 195 197 197 194 192 189 190 193 188 181 178 176 177 178 176 180 183 180 179 182 184 177 166 161 158 164 173 181 190 194 203 199 188 182 171 164 159 150 143 136 126 121 118 125 151 176 187 190 193 198 199 203 234 280 309 323 333 338 345 1 9 7 13 18 10 359 356 357 357 4 38 117 99 60 59 64 64 59 53 54
206 204 205 206 202 197 197 197 196 194 192 192 193 188 181 177 176 178 180 181 185 186 184 184 185 186 180 172 161 155 164 173 181 189 189 196 189 179 177 169 164 161 155 148 143 139 133 129 124 129 150 173 185 192 198 204 219 252 270 284 297 312 321 329 350 7 8 14 23 16 2 359 0 359 5 54 123 136 49 52 56 59 58 49 47
208 207 209 213 208 199 198 198 197 194 193 192 190 188 181 177 179 179 180 185 189 189 189 187 184 186 184 177 161 154 165 179 195 204 199 197 184 175 174 171 167 164 161 155 150 146 142 142 138 135 143 160 179 190 196 207 227 249 260 270 282 293 302 312 329 356 3 12 25 24 12 7 6 6 6 86 93 58 357 352 354 30 43 40 43
209 209 212 216 211 203 199 197 196 194 192 190 187 186 182 179 181 181 183 189 191 191 190 188 186 186 186 181 172 165 172 188 207 220 221 209 191 177 173 171 169 169 165 159 152 149 146 147 148 147 148 153 165 178 188 198 210 223 240 255 273 286 292 301 320 345 354 9 26 29 21 15 13 13 14 67 59 31 3 351 329 319 330 352 7
209 210 214 218 214 206 202 198 195 194 194 190 185 184 184 183 183 182 186 191 191 192 192 191 191 190 193 192 185 178 182 199 219 228 228 221 207 182 175 172 172 174 168 161 156 154 150 149 150 150 150 153 158 169 183 190 198 212 228 246 267 285 291 306 344 357 358 11 26 32 28 23 21 21 20 33 45 27 8 356 345 331 316 310 313
213 211 213 218 216 209 205 202 197 195 195 191 184 186 188 187 185 184 187 190 191 197 198 197 199 201 206 207 202 195 195 208 225 233 231 230 224 193 180 177 175 176 171 164 161 159 157 155 155 156 160 165 170 179 187 197 213 228 225 245 281 345 24 22 26 19 19 21 28 34 32 30 30 28 23 22 34 22 3 356 353 345 334 326 317
217 215 214 217 217 213 209 204 201 196 195 192 187 188 190 189 187 188 190 192 197 204 204 203 208 211 216 219 219 217 217 220 225 234 235 232 233 208 188 183 179 178 175 171 168 166 165 166 168 171 178 182 188 198 210 231 249 290 296 269 291 354 38 32 31 29 30 27 29 34 33 33 34 35 31 19 15 4 345 346 354 349 340 337 338
218 218 218 218 215 214 211 208 204 197 194 193 190 188 190 190 190 193 195 198 201 204 205 206 212 219 224 225 228 229 233 234 229 231 234 231 232 221 197 191 185 180 180 179 177 178 177 178 183 184 190 194 200 217 247 281 295 309 314 296 286 305 354 8 23 28 28 23 25 29 30 31 33 37 38 34 24 360 328 325 334 338 331 328 332
221 220 222 221 216 213 211 209 205 197 194 194 192 188 189 191 194 197 200 202 202 204 205 209 216 223 229 230 234 236 237 239 234 230 228 227 227 220 204 196 193 187 185 186 188 190 191 190 194 197 202 209 220 246 273 299 313 313 307 291 280 291 321 339 358 12 19 14 14 19 22 24 27 31 35 40 39 30 12 343 326 318 313 310 313
221 221 222 220 216 212 209 208 203 197 195 195 194 189 190 194 198 202 204 204 205 208 211 215 222 227 231 235 238 238 236 237 234 229 226 224 225 221 208 198 199 196 192 193 195 199 202 200 204 211 216 221 235 264 296 314 318 313 299 283 278 288 306 327 333 337 356 358 360 8 12 13 19 25 26 28 31 35 35 27 12 343 317 303 300
221 221 222 218 214 212 209 209 205 200 197 195 195 192 194 199 203 207 209 209 209 213 218 222 229 231 237 240 239 238 234 232 231 232 229 225 225 224 214 200 202 204 200 199 200 203 207 209 215 225 227 230 244 275 314 323 319 308 287 275 282 292 297 307 309 313 326 337 347 354 356 358 4 11 14 13 12 18 24 28 28 18 3 340 321
220 221 221 215 211 211 211 212 210 206 201 197 196 196 199 203 206 208 211 214 216 221 227 234 240 241 244 244 238 236 234 232 232 231 228 225 228 230 221 206 205 207 205 205 207 209 213 217 222 231 235 238 251 285 316 319 314 302 273 267 282 289 291 296 297 301 310 322 339 343 344 345 344 346 353 360 1 359 1 7 10 13 14 9 3
216 217 216 211 207 208 211 213 212 210 206 202 200 200 200 204 208 210 214 221 226 231 239 248 250 246 246 244 240 239 234 233 232 227 224 226 231 235 227 216 213 212 208 209 212 216 219 221 224 233 241 245 257 287 303 304 304 295 268 263 277 279 278 285 286 292 304 318 330 336 336 330 324 326 332 342 347 346 348 351 351 351 350 350 356
210 210 210 207 206 207 210 211 211 212 211 206 205 203 201 205 212 214 219 227 236 239 243 249 248 247 247 246 248 244 234 233 233 227 225 226 229 232 227 221 221 221 219 219 221 221 222 224 230 239 246 253 274 290 291 293 294 286 270 266 273 273 273 279 284 291 304 317 324 327 326 321 315 312 313 319 327 328 329 332 333 333 328 324 325
208 207 205 205 206 208 209 208 209 211 211 208 206 205 204 209 215 218 222 234 242 238 240 247 248 251 252 249 252 248 238 237 238 236 232 225 226 228 222 220 226 230 229 228 229 229 229 235 244 250 252 263 284 288 288 291 287 277 272 272 278 281 282 285 289 293 301 312 317 318 317 313 307 302 303 306 310 312 311 313 316 315 315 314 317
208 206 205 205 205 206 206 205 207 208 206 206 206 205 208 212 217 220 225 238 245 236 237 248 252 255 254 250 253 251 244 243 244 246 241 231 228 229 225 225 234 239 237 233 234 236 239 247 255 258 261 271 282 285 286 287 283 276 274 278 286 290 288 286 289 295 302 308 310 309 309 306 300 297 298 296 298 305 302 299 299 299 302 304 307
207 205 204 204 204 204 204 204 206 205 203 204 205 207 211 214 217 222 228 240 246 240 241 250 254 257 257 254 255 256 253 249 251 253 248 240 236 237 237 236 242 247 251 251 248 248 250 255 259 260 265 271 277 280 280 282 283 282 283 286 291 292 287 281 283 291 298 302 303 303 301 300 300 299 295 289 290 299 301 294 287 288 294 297 296
205 205 203 202 202 202 203 205 207 207 206 207 208 211 216 220 228 232 234 243 248 245 244 247 252 256 260 259 257 259 260 258 257 257 253 247 242 242 246 250 251 251 255 261 259 258 260 263 266 268 272 274 274 273 273 278 286 292 297 299 300 302 297 288 287 291 294 296 296 297 298 297 298 296 291 287 288 295 297 291 284 285 290 292 292
208 209 205 202 202 201 202 205 209 212 213 214 215 218 224 230 235 230 229 237 239 237 236 238 244 249 255 259 260 262 264 261 257 257 257 255 251 249 250 252 255 256 255 259 258 258 262 265 268 271 270 267 266 267 271 282 292 298 304 308 314 320 320 310 302 300 299 297 292 292 294 293 293 290 287 288 290 294 291 284 279 280 284 287 289
210 210 206 203 203 202 203 205 209 214 217 220 222 225 228 227 220 211 215 224 227 230 232 235 242 248 253 259 264 268 266 262 258 258 259 258 255 254 253 251 251 256 256 256 256 256 258 261 265 269 269 267 268 273 282 292 295 297 301 305 315 325 331 331 326 324 319 315 305 298 296 293 291 288 289 293 296 295 290 283 280 280 282 283 285
214 211 207 205 204 203 204 206 209 213 216 219 222 225 220 213 209 210 218 224 228 233 238 243 248 253 256 258 264 267 266 262 258 259 260 257 254 252 252 249 248 250 250 252 253 252 251 251 259 268 275 281 282 278 280 286 287 285 289 293 299 309 317 317 323 330 329 328 324 312 303 301 302 298 296 297 297 298 296 292 289 285 285 285 285
217 213 209 207 206 204 203 205 206 207 209 212 215 217 212 207 208 212 220 230 239 246 253 261 264 262 260 258 260 264 265 261 256 255 257 256 253 248 246 245 245 244 242 244 246 247 244 243 249 258 265 270 268 265 268 273 274 273 280 285 284 281 286 298 308 312 315 324 333 326 307 305 313 312 311 307 302 301 301 299 297 293 291 290 291
217 212 211 208 205 204 202 202 201 201 203 204 207 209 209 210 215 222 230 241 250 262 270 270 269 266 260 254 252 255 258 256 252 251 250 251 249 245 243 243 243 242 239 239 242 243 239 236 240 244 247 253 257 261 262 260 263 270 279 282 279 277 283 292 298 304 312 316 322 320 300 298 308 310 312 313 310 309 306 304 304 302 300 299 299
216 211 212 210 206 203 203 201 200 201 202 203 205 207 210 217 225 234 245 254 260 270 272 261 255 254 251 246 243 247 252 250 247 247 247 247 245 241 239 240 243 243 241 239 240 242 240 238 240 242 245 247 252 255 252 254 259 265 273 275 272 272 280 289 293 299 306 303 305 307 292 290 299 304 307 308 309 311 310 310 313 312 312 312 311
218 212 212 213 210 205 204 204 203 204 205 206 208 211 216 225 232 240 247 255 262 269 273 264 253 249 247 243 241 245 251 249 245 246 247 246 244 241 238 239 241 240 240 238 237 240 242 244 246 249 246 241 241 244 246 251 255 257 260 264 265 266 271 280 288 292 294 298 302 307 304 297 289 290 299 302 305 307 306 310 315 317 319 321 321
223 215 212 214 214 209 207 208 208 209 210 211 213 216 222 228 234 238 244 251 257 264 270 265 251 247 248 246 243 245 247 248 248 248 248 245 244 243 241 242 240 236 234 233 234 236 238 242 245 246 243 237 234 237 241 246 250 252 253 256 259 260 262 266 274 280 282 288 295 303 314 314 303 295 296 296 297 296 299 304 307 309 312 314 314
228 220 215 213 215 215 212 212 212 213 214 217 219 223 228 233 236 239 244 250 255 262 266 263 250 245 247 249 247 246 246 248 250 251 250 247 246 246 245 243 241 237 233 231 230 230 231 233 235 235 234 234 232 233 235 240 246 248 247 249 252 251 251 255 260 267 274 282 290 299 311 313 309 312 316 309 303 297 296 300 304 306 306 306 308